Content
SEND FEEDBACK

Daily
Averages
Monthly
Summary
United States of America

ENTERPRISE, ALABAMA


Home > North America > United States > Alabama
Elevation: 298 feet     Latitude: 31 17N     Longitude: 085 43W

WEATHER
 
SELECT A DAY
Number of Records: 66,287;   Date Range: 2/10/98 - 10/19/14
 
SHARE

PRINT THIS DATA

[ ← Previous Day ]
WEATHER ALMANAC - SEPTEMBER 2, 2014
[ Next Day → ]
[ °C ]   °F
Weather ElementAverageHighLow
Temperature82.8 °F96.1 °F (1:53 pm)71.1 °F (4:53 am)
Dewpoint69.5 °F73.9 °F (8:53 am)64 °F (2:53 pm)
Humidity68 %93 % (2:53 am)35 % (2:53 pm)
Barometer30.03 in30.11 in (7:53 am)29.94 in (4:53 pm)
Wind Speed2.3 mph6.9 mph (3:53 pm)
Weather ElementAverage
Visibility9.5 mi
Wind DirectionENE (75.9 °)

Weather ElementTotal
Precipitation---
Cooling Degree Days18.6 (Base 65)
Growing Degree Days33.6 (Base 50)
Averaged from 22 records on September 2, 2014
WEATHER CONDITIONS BREAKOUT
WIND DIRECTION BREAKOUT
WEATHER BY HOUR - SEPTEMBER 2, 2014
[ °C ]   °F
Local TimeTemperatureDewpointHumidityBarometerVisibilityWind DirectionWind SpeedGust SpeedPrecipitationEventsConditions
1:53 AM73.9 °F70.0 °F87 %30.04 in10.0 miCalmClear
2:53 AM72.0 °F70.0 °F93 %30.03 in9.0 miCalmClear
3:53 AM72.0 °F70.0 °F93 %30.04 in8.0 miCalmClear
4:53 AM71.1 °F69.1 °F93 %30.05 in8.0 miCalmClear
5:53 AM71.1 °F69.1 °F93 %30.05 in7.0 miCalmClear
6:53 AM71.1 °F69.1 °F93 %30.09 in7.0 miCalmClear
7:53 AM77.0 °F72.0 °F84 %30.11 in10.0 miCalmClear
8:53 AM82.9 °F73.9 °F74 %30.10 in10.0 miCalmClear
9:53 AM88.0 °F71.1 °F57 %30.09 in10.0 miVariable3.5 mphPartly Cloudy
10:53 AM90.0 °F70.0 °F52 %30.09 in10.0 miNorthScattered Clouds
11:53 AM91.9 °F68.0 °F45 %30.07 in10.0 miCalmClear
12:53 PM95.0 °F68.0 °F41 %30.05 in10.0 miSW (220°)4.6 mphClear
1:53 PM96.1 °F64.9 °F36 %30.01 in10.0 miNorthClear
2:53 PM96.1 °F64.0 °F35 %29.98 in10.0 miVariable3.5 mphClear
3:53 PM95.0 °F64.0 °F36 %29.95 in10.0 miVariable6.9 mphClear
4:53 PM93.9 °F64.0 °F37 %29.94 in10.0 miSSW (210°)5.8 mphPartly Cloudy
5:53 PM84.0 °F72.0 °F67 %29.96 in10.0 miWNW (290°)6.9 mph0.00 inOvercast
6:53 PM84.0 °F71.1 °F65 %29.97 in10.0 miNW (320°)3.5 mph0.00 inScattered Clouds
7:53 PM80.1 °F72.0 °F76 %29.99 in10.0 miWNW (300°)4.6 mphClear
8:53 PM80.1 °F72.0 °F76 %30.01 in10.0 miCalmClear
10:53 PM80.1 °F72.0 °F76 %30.02 in10.0 miWest (270°)3.5 mphClear
11:53 PM75.9 °F72.0 °F87 %30.02 in10.0 miENE (60°)3.5 mphClear
Hourly data recorded from KLOR, located miles away from Enterprise, Alabama







STORIES FROM OUR PARTNERS